Погода в Силчаре

Индия     24°48′59″N   92°47′49″E
темп.,
°C
ветер,
м/с
пор.,
м/с
влажн.,
%
обл.,
%
осадки,
мм/ч
давл.,
гПа
погр.,
м
23 октября, сб
сб2323:30+23ссв1173100 0.0 101312
02:30+22в227242 0.0 101231
05:30+20в22780 0.0 101334
08:30+24в23760 0.0 1015284
11:30+28сз11660 0.0 1012431
14:30+28зсз46770 0.0 1010389
17:30+23з238283 0.0 101132
20:30+22ююз008250 0.0 101311
24 октября, вс
вс2423:30+21вюв11890 0.0 101311
02:30+20всв11930 0.0 101212
05:30+20вюв11940 0.0 101312
08:30+25в22800 0.0 1015311
11:30+28зсз11680 0.0 1012431
14:30+28зсз34780 0.0 1009402
17:30+24з22890 0.0 101017
20:30+22ююв11920 0.0 101311
25 октября, пн
пн2523:30+21всв11950 0.0 101211
02:30+21в119645 0.0 101111
05:30+21в119631 0.0 101225
08:30+25в12846 0.0 1014349
11:30+28зсз11710 0.0 1011615
14:30+28сз35780 0.0 1008451
17:30+24з22880 0.4 100916
20:30+22ююв01920 0.1 101111
26 октября, вт
вт2623:30+21всв119521 0.1 101111
02:30+21в229766 0.4 101160
05:30+21в119699 0.4 101226
08:30+25в11850 0.0 1014292
11:30+28зсз21690 0.0 1011664
14:30+28зсз45780 0.0 1008449
17:30+23з11890 0.1 100911
20:30+22ю11920 0.0 101212
27 октября, ср
ср2723:30+21всв22960 0.0 101225
02:30+20в22964 0.0 101122
05:30+20всв2293100 0.0 101337
08:30+23в128668 0.0 1014158
11:30+28з11690 0.0 1011439
14:30+28зсз34780 0.0 1009407
17:30+23з11880 0.0 100911
20:30+22св01920 0.0 101111